22-01-2022, 00:00:04,    276,    0.0,    1.7,   0.00,   0.00, 1031.8,   81.0, -999.0
22-01-2022, 00:00:14,    276,    0.0,    1.8,   0.00,   0.00, 1031.8,   81.0, -999.0
22-01-2022, 00:00:24,    277,    0.0,    1.7,   0.00,   0.00, 1031.8,   80.9, -999.0
22-01-2022, 00:00:34,    277,    0.0,    1.8,   0.00,   0.00, 1031.8,   81.0, -999.0
22-01-2022, 00:00:44,    277,    0.0,    1.8,   0.00,   0.00, 1031.8,   81.1, -999.0
22-01-2022, 00:00:54,    277,    0.0,    1.8,   0.00,   0.00, 1031.8,   81.0, -999.0
22-01-2022, 00:01:04,    277,    0.0,    1.8,   0.00,   0.00, 1031.8,   80.9, -999.0
22-01-2022, 00:01:14,    277,    0.0,    1.8,   0.00,   0.00, 1031.8,   80.9, -999.0
22-01-2022, 00:01:24,    277,    0.0,    1.8,   0.00,   0.00, 1031.8,   80.9, -999.0
22-01-2022, 00:01:34,    277,    0.0,    1.9,   0.00,   0.00, 1031.8,   81.1, -999.0
22-01-2022, 00:01:44,    277,    0.0,    1.9,   0.00,   0.00, 1031.8,   81.0, -999.0
22-01-2022, 00:01:54,    277,    0.0,    1.9,   0.00,   0.00, 1031.8,   81.1, -999.0
22-01-2022, 00:02:04,    277,    0.0,    1.9,   0.00,   0.00, 1031.8,   81.1, -999.0
22-01-2022, 00:02:14,    277,    0.0,    1.9,   0.00,   0.00, 1031.8,   81.0, -999.0
22-01-2022, 00:02:23,    277,    0.0,    1.8,   0.00,   0.00, 1031.8,   81.1, -999.0
22-01-2022, 00:02:34,    277,    0.0,    1.9,   0.00,   0.00, 1031.8,   80.9, -999.0
22-01-2022, 00:02:44,    277,    0.0,    1.9,   0.00,   0.00, 1031.8,   81.0, -999.0
22-01-2022, 00:02:53,    277,    0.0,    1.8,   0.00,   0.00, 1031.8,   81.0, -999.0
22-01-2022, 00:03:04,    277,    0.0,    1.9,   0.00,   0.00, 1031.9,   81.0, -999.0
22-01-2022, 00:03:13,    277,    0.0,    1.9,   0.00,   0.00, 1031.9,   81.0, -999.0
22-01-2022, 00:03:23,    277,    0.0,    1.8,   0.00,   0.00, 1031.8,   81.0, -999.0
22-01-2022, 00:03:33,    277,    0.0,    1.9,   0.00,   0.00, 1031.8,   81.0, -999.0
22-01-2022, 00:03:43,    277,    0.0,    1.9,   0.00,   0.00, 1031.8,   81.0, -999.0
22-01-2022, 00:03:53,    277,    0.0,    1.8,   0.00,   0.00, 1031.8,   81.0, -999.0
22-01-2022, 00:04:03,    278,    0.0,    1.9,   0.00,   0.00, 1031.8,   81.0, -999.0
22-01-2022, 00:04:13,    278,    0.0,    1.9,   0.00,   0.00, 1031.8,   81.1, -999.0
22-01-2022, 00:04:23,    278,    0.0,    1.9,   0.00,   0.00, 1031.8,   81.0, -999.0
22-01-2022, 00:04:33,    277,    0.0,    1.9,   0.00,   0.00, 1031.8,   81.0, -999.0
22-01-2022, 00:04:43,    277,    0.0,    1.9,   0.00,   0.00, 1031.8,   81.0, -999.0
22-01-2022, 00:04:53,    277,    0.0,    1.9,   0.00,   0.00, 1031.8,   81.1, -999.0
22-01-2022, 00:05:03,    277,    0.0,    1.9,   0.00,   0.00, 1031.8,   81.1, -999.0
22-01-2022, 00:05:13,    277,    0.0,    1.9,   0.00,   0.00, 1031.8,   81.1, -999.0
22-01-2022, 00:05:23,    277,    0.0,    1.9,   0.00,   0.00, 1031.8,   81.2, -999.0
22-01-2022, 00:05:33,    277,    0.0,    1.9,   0.00,   0.00, 1031.8,   81.2, -999.0
22-01-2022, 00:05:43,    277,    0.0,    1.9,   0.00,   0.00, 1031.8,   81.1, -999.0
22-01-2022, 00:05:53,    277,    0.0,    1.9,   0.00,   0.00, 1031.8,   81.0, -999.0
22-01-2022, 00:06:02,    277,    0.0,    1.9,   0.00,   0.00, 1031.8,   81.1, -999.0
22-01-2022, 00:06:13,    277,    0.0,    1.9,   0.00,   0.00, 1031.8,   81.1, -999.0
22-01-2022, 00:06:23,    277,    0.0,    2.0,   0.00,   0.00, 1031.8,   81.0, -999.0
22-01-2022, 00:06:32,    275,    0.0,    2.0,   0.00,   0.00, 1031.8,   81.2, -999.0
22-01-2022, 00:06:42,    288,    0.0,    2.0,   0.00,   0.00, 1031.8,   81.1, -999.0
22-01-2022, 00:06:53,    288,    0.2,    2.0,   0.00,   0.00, 1031.9,   81.5, -999.0
22-01-2022, 00:07:02,    288,    0.0,    2.1,   0.00,   0.00, 1031.8,   81.1, -999.0
22-01-2022, 00:07:12,    288,    0.0,    2.0,   0.00,   0.00, 1031.7,   81.1, -999.0
22-01-2022, 00:07:22,    288,    0.0,    2.1,   0.00,   0.00, 1031.8,   81.1, -999.0
22-01-2022, 00:07:32,    288,    0.0,    2.0,   0.00,   0.00, 1031.7,   81.0, -999.0
22-01-2022, 00:07:42,    288,    0.0,    2.0,   0.00,   0.00, 1031.8,   81.1, -999.0
22-01-2022, 00:07:52,    288,    0.0,    2.1,   0.00,   0.00, 1031.8,   81.0, -999.0
22-01-2022, 00:08:02,    288,    0.1,    2.1,   0.00,   0.00, 1031.8,   81.3, -999.0
22-01-2022, 00:08:12,    288,    0.2,    2.2,   0.00,   0.00, 1031.8,   81.2, -999.0
22-01-2022, 00:08:22,    288,    0.1,    2.2,   0.00,   0.00, 1031.9,   81.3, -999.0
22-01-2022, 00:08:32,    287,    0.0,    2.1,   0.00,   0.00, 1031.7,   80.9, -999.0
22-01-2022, 00:08:42,    287,    0.0,    2.0,   0.00,   0.00, 1031.7,   80.9, -999.0
22-01-2022, 00:08:52,    288,    0.0,    2.0,   0.00,   0.00, 1031.8,   80.8, -999.0
22-01-2022, 00:09:02,    287,    0.0,    2.1,   0.00,   0.00, 1031.7,   80.8, -999.0
22-01-2022, 00:09:11,    287,    0.0,    2.1,   0.00,   0.00, 1031.7,   81.0, -999.0
22-01-2022, 00:09:22,    287,    0.0,    2.1,   0.00,   0.00, 1031.7,   80.7, -999.0
22-01-2022, 00:09:32,    288,    0.0,    2.1,   0.00,   0.00, 1031.8,   81.0, -999.0
22-01-2022, 00:09:41,    288,    0.5,    2.1,   0.00,   0.00, 1031.9,   81.1, -999.0
22-01-2022, 00:09:52,    288,    0.1,    2.1,   0.00,   0.00, 1031.8,   80.9, -999.0
22-01-2022, 00:10:02,    289,    0.0,    2.1,   0.00,   0.00, 1031.8,   81.1, -999.0
22-01-2022, 00:10:11,    289,    0.0,    2.1,   0.00,   0.00, 1031.7,   80.9, -999.0
22-01-2022, 00:10:21,    289,    0.0,    2.1,   0.00,   0.00, 1031.8,   80.9, -999.0
22-01-2022, 00:10:31,    289,    0.0,    2.1,   0.00,   0.00, 1031.8,   81.0, -999.0
22-01-2022, 00:10:41,    290,    0.0,    2.2,   0.00,   0.00, 1031.8,   80.8, -999.0
22-01-2022, 00:10:51,    290,    0.0,    2.2,   0.00,   0.00, 1031.8,   80.8, -999.0
22-01-2022, 00:11:01,    289,    0.0,    2.2,   0.00,   0.00, 1031.8,   80.9, -999.0
22-01-2022, 00:11:11,    287,    0.0,    2.2,   0.00,   0.00, 1031.7,   80.7, -999.0
22-01-2022, 00:11:21,    287,    0.2,    2.3,   0.00,   0.00, 1031.9,   81.1, -999.0
22-01-2022, 00:11:31,    287,    0.0,    2.2,   0.00,   0.00, 1031.8,   80.7, -999.0
22-01-2022, 00:11:41,    287,    0.0,    2.2,   0.00,   0.00, 1031.7,   80.7, -999.0
22-01-2022, 00:11:51,    287,    0.0,    2.2,   0.00,   0.00, 1031.8,   80.7, -999.0
22-01-2022, 00:12:01,    287,    0.0,    2.2,   0.00,   0.00, 1031.7,   80.5, -999.0
22-01-2022, 00:12:11,    287,    0.0,    2.2,   0.00,   0.00, 1031.8,   80.5, -999.0
22-01-2022, 00:12:21,    287,    0.0,    2.2,   0.00,   0.00, 1031.8,   80.5, -999.0
22-01-2022, 00:12:31,    287,    0.0,    2.1,   0.00,   0.00, 1031.8,   80.4, -999.0
22-01-2022, 00:12:41,    287,    0.0,    2.1,   0.00,   0.00, 1031.8,   80.4, -999.0
22-01-2022, 00:12:50,    287,    0.0,    2.1,   0.00,   0.00, 1031.7,   80.2, -999.0
22-01-2022, 00:13:01,    287,    0.0,    2.2,   0.00,   0.00, 1031.8,   80.4, -999.0
22-01-2022, 00:13:11,    287,    0.0,    2.2,   0.00,   0.00, 1031.8,   80.3, -999.0
22-01-2022, 00:13:20,    287,    0.0,    2.1,   0.00,   0.00, 1031.8,   80.5, -999.0
22-01-2022, 00:13:30,    287,    0.0,    2.2,   0.00,   0.00, 1031.8,   80.4, -999.0
22-01-2022, 00:13:41,    287,    0.0,    2.2,   0.00,   0.00, 1031.8,   80.3, -999.0
22-01-2022, 00:13:50,    287,    0.0,    2.2,   0.00,   0.00, 1031.8,   80.3, -999.0
22-01-2022, 00:14:00,    287,    0.0,    2.1,   0.00,   0.00, 1031.8,   80.4, -999.0
22-01-2022, 00:14:10,    287,    0.0,    2.1,   0.00,   0.00, 1031.8,   80.3, -999.0
22-01-2022, 00:14:20,    287,    0.0,    2.2,   0.00,   0.00, 1031.8,   80.2, -999.0
22-01-2022, 00:14:30,    287,    0.0,    2.3,   0.00,   0.00, 1031.8,   80.4, -999.0
22-01-2022, 00:14:40,    287,    0.0,    2.3,   0.00,   0.00, 1031.8,   80.3, -999.0
22-01-2022, 00:14:50,    287,    0.1,    2.2,   0.00,   0.00, 1031.8,   80.5, -999.0
22-01-2022, 00:15:00,    287,    0.1,    2.2,   0.00,   0.00, 1031.9,   80.5, -999.0
22-01-2022, 00:15:10,    287,    0.0,    2.2,   0.00,   0.00, 1031.8,   80.2, -999.0
22-01-2022, 00:15:20,    286,    0.0,    2.2,   0.00,   0.00, 1031.8,   80.2, -999.0
22-01-2022, 00:15:30,    287,    0.0,    2.2,   0.00,   0.00, 1031.8,   80.2, -999.0
22-01-2022, 00:15:40,    287,    0.0,    2.2,   0.00,   0.00, 1031.8,   80.2, -999.0
22-01-2022, 00:15:50,    287,    0.0,    2.2,   0.00,   0.00, 1031.8,   80.2, -999.0
22-01-2022, 00:15:59,    293,    0.0,    2.1,   0.00,   0.00, 1031.8,   80.2, -999.0
22-01-2022, 00:16:10,    287,    0.0,    2.2,   0.00,   0.00, 1031.8,   80.0, -999.0
22-01-2022, 00:16:20,    287,    0.0,    2.2,   0.00,   0.00, 1031.8,   80.2, -999.0
22-01-2022, 00:16:29,    287,    0.0,    2.3,   0.00,   0.00, 1031.8,   80.1, -999.0
22-01-2022, 00:16:40,    287,    0.0,    2.2,   0.00,   0.00, 1031.8,   80.0, -999.0
22-01-2022, 00:16:50,    287,    0.0,    2.3,   0.00,   0.00, 1031.8,   80.1, -999.0
22-01-2022, 00:16:59,    287,    0.0,    2.2,   0.00,   0.00, 1031.8,   80.1, -999.0
22-01-2022, 00:17:09,    287,    0.0,    2.2,   0.00,   0.00, 1031.8,   80.0, -999.0
22-01-2022, 00:17:20,    287,    0.0,    2.2,   0.00,   0.00, 1031.8,   80.0, -999.0
22-01-2022, 00:17:29,    287,    0.0,    2.3,   0.00,   0.00, 1031.8,   79.9, -999.0
22-01-2022, 00:17:39,    287,    0.0,    2.2,   0.00,   0.00, 1031.8,   80.0, -999.0
22-01-2022, 00:17:49,    287,    0.0,    2.2,   0.00,   0.00, 1031.8,   80.1, -999.0
22-01-2022, 00:17:59,    287,    0.0,    2.3,   0.00,   0.00, 1031.8,   79.9, -999.0
22-01-2022, 00:18:09,    287,    0.0,    2.2,   0.00,   0.00, 1031.8,   79.9, -999.0
22-01-2022, 00:18:19,    287,    0.0,    2.2,   0.00,   0.00, 1031.8,   79.9, -999.0
22-01-2022, 00:18:29,    287,    0.0,    2.2,   0.00,   0.00, 1031.8,   79.9, -999.0
22-01-2022, 00:18:39,    289,    0.0,    2.2,   0.00,   0.00, 1031.8,   79.9, -999.0
22-01-2022, 00:18:49,    325,    0.0,    2.3,   0.00,   0.00, 1031.8,   80.0, -999.0
22-01-2022, 00:18:59,    325,    0.0,    2.3,   0.00,   0.00, 1031.8,   79.8, -999.0
22-01-2022, 00:19:09,    324,    0.0,    2.3,   0.00,   0.00, 1031.8,   79.8, -999.0
22-01-2022, 00:19:19,    325,    0.0,    2.2,   0.00,   0.00, 1031.8,   79.9, -999.0
22-01-2022, 00:19:29,    325,    0.0,    2.2,   0.00,   0.00, 1031.8,   79.7, -999.0
22-01-2022, 00:19:38,    325,    0.0,    2.3,   0.00,   0.00, 1031.8,   79.8, -999.0
22-01-2022, 00:19:49,    325,    0.0,    2.3,   0.00,   0.00, 1031.8,   79.7, -999.0
22-01-2022, 00:19:59,    325,    0.0,    2.2,   0.00,   0.00, 1031.8,   79.7, -999.0
22-01-2022, 00:20:08,    325,    0.0,    2.3,   0.00,   0.00, 1031.8,   79.6, -999.0
22-01-2022, 00:20:18,    324,    0.0,    2.3,   0.00,   0.00, 1031.8,   79.7, -999.0
22-01-2022, 00:20:29,    325,    0.0,    2.3,   0.00,   0.00, 1031.8,   79.7, -999.0
22-01-2022, 00:20:38,    325,    0.0,    2.3,   0.00,   0.00, 1031.8,   79.7, -999.0
22-01-2022, 00:20:48,    325,    0.0,    2.2,   0.00,   0.00, 1031.8,   79.6, -999.0
22-01-2022, 00:20:58,    324,    0.0,    2.2,   0.00,   0.00, 1031.8,   79.6, -999.0
22-01-2022, 00:21:08,    325,    0.0,    2.3,   0.00,   0.00, 1031.8,   79.6, -999.0
22-01-2022, 00:21:18,    324,    0.0,    2.3,   0.00,   0.00, 1031.8,   79.6, -999.0
22-01-2022, 00:21:28,    325,    0.5,    2.4,   0.00,   0.00, 1031.9,   79.9, -999.0
22-01-2022, 00:22:18,    324,    0.0,    2.2,   0.00,   0.00, 1031.8,   79.2, -999.0
22-01-2022, 00:22:28,    324,    0.1,    2.2,   0.00,   0.00, 1031.9,   79.5, -999.0
22-01-2022, 00:22:38,    324,    0.3,    2.3,   0.00,   0.00, 1031.9,   79.5, -999.0
22-01-2022, 00:22:48,    324,    0.2,    2.3,   0.00,   0.00, 1031.9,   79.7, -999.0
22-01-2022, 00:22:58,    324,    0.1,    2.2,   0.00,   0.00, 1031.9,   79.6, -999.0
22-01-2022, 00:23:08,    324,    0.1,    2.3,   0.00,   0.00, 1031.8,   79.6, -999.0
22-01-2022, 00:23:17,    324,    0.4,    2.2,   0.00,   0.00, 1031.8,   79.5, -999.0
22-01-2022, 00:23:28,    324,    0.7,    2.3,   0.00,   0.00, 1031.9,   79.8, -999.0
22-01-2022, 00:23:38,    324,    0.7,    2.3,   0.00,   0.00, 1031.9,   79.8, -999.0
22-01-2022, 00:23:47,    330,    0.7,    2.3,   0.00,   0.00, 1031.9,   79.8, -999.0
22-01-2022, 00:23:57,    329,    0.0,    2.2,   0.00,   0.00, 1031.8,   79.5, -999.0
22-01-2022, 00:24:08,    312,    0.4,    2.2,   0.00,   0.00, 1031.9,   79.7, -999.0
22-01-2022, 00:24:17,    313,    0.4,    2.3,   0.00,   0.00, 1031.9,   79.9, -999.0
22-01-2022, 00:24:27,    313,    0.3,    2.3,   0.00,   0.00, 1031.9,   79.8, -999.0
22-01-2022, 00:24:37,    279,    0.0,    2.2,   0.00,   0.00, 1031.8,   79.5, -999.0
22-01-2022, 00:24:47,    279,    0.7,    2.2,   0.00,   0.00, 1031.9,   79.9, -999.0
22-01-2022, 00:24:57,    279,    0.0,    2.2,   0.00,   0.00, 1031.8,   79.6, -999.0
22-01-2022, 00:25:07,    279,    0.0,    2.3,   0.00,   0.00, 1031.7,   79.5, -999.0
22-01-2022, 00:25:17,    280,    0.0,    2.3,   0.00,   0.00, 1031.8,   79.5, -999.0
22-01-2022, 00:25:27,    280,    0.0,    2.3,   0.00,   0.00, 1031.8,   79.5, -999.0
22-01-2022, 00:25:37,    280,    0.0,    2.3,   0.00,   0.00, 1031.8,   79.6, -999.0
22-01-2022, 00:25:47,    324,    0.1,    2.3,   0.00,   0.00, 1031.8,   79.5, -999.0
22-01-2022, 00:25:57,    324,    0.4,    2.3,   0.00,   0.00, 1031.9,   79.4, -999.0
22-01-2022, 00:26:07,    324,    0.1,    2.3,   0.00,   0.00, 1031.8,   79.4, -999.0
22-01-2022, 00:26:17,    323,    0.1,    2.3,   0.00,   0.00, 1031.8,   79.5, -999.0
22-01-2022, 00:26:27,    323,    0.0,    2.2,   0.00,   0.00, 1031.8,   79.3, -999.0
22-01-2022, 00:26:37,    323,    0.0,    2.2,   0.00,   0.00, 1031.8,   79.2, -999.0
22-01-2022, 00:26:47,    323,    0.0,    2.3,   0.00,   0.00, 1031.8,   79.3, -999.0
22-01-2022, 00:26:56,    323,    0.0,    2.2,   0.00,   0.00, 1031.8,   79.4, -999.0
22-01-2022, 00:27:06,    323,    0.0,    2.3,   0.00,   0.00, 1031.8,   79.3, -999.0
22-01-2022, 00:27:17,    323,    0.0,    2.2,   0.00,   0.00, 1031.8,   79.2, -999.0
22-01-2022, 00:27:26,    323,    0.0,    2.2,   0.00,   0.00, 1031.7,   79.3, -999.0
22-01-2022, 00:27:36,    323,    0.0,    2.2,   0.00,   0.00, 1031.7,   79.2, -999.0
22-01-2022, 00:27:47,    322,    0.0,    2.2,   0.00,   0.00, 1031.8,   79.1, -999.0
22-01-2022, 00:27:56,    322,    0.0,    2.2,   0.00,   0.00, 1031.7,   79.1, -999.0
22-01-2022, 00:28:06,    322,    0.0,    2.2,   0.00,   0.00, 1031.7,   79.2, -999.0
22-01-2022, 00:28:16,    322,    0.0,    2.1,   0.00,   0.00, 1031.7,   79.1, -999.0
22-01-2022, 00:28:26,    322,    0.0,    2.2,   0.00,   0.00, 1031.7,   79.2, -999.0
22-01-2022, 00:28:36,    322,    0.0,    2.1,   0.00,   0.00, 1031.7,   79.3, -999.0
22-01-2022, 00:28:46,    322,    0.0,    2.2,   0.00,   0.00, 1031.7,   79.3, -999.0
22-01-2022, 00:28:56,    322,    0.0,    2.2,   0.00,   0.00, 1031.7,   79.4, -999.0
22-01-2022, 00:29:06,    322,    0.0,    2.2,   0.00,   0.00, 1031.7,   79.4, -999.0
22-01-2022, 00:29:16,    322,    0.0,    2.2,   0.00,   0.00, 1031.7,   79.4, -999.0
22-01-2022, 00:29:26,    322,    0.0,    2.3,   0.00,   0.00, 1031.7,   79.4, -999.0
22-01-2022, 00:29:36,    322,    0.0,    2.2,   0.00,   0.00, 1031.7,   79.4, -999.0
22-01-2022, 00:29:46,    322,    0.0,    2.2,   0.00,   0.00, 1031.7,   79.2, -999.0
22-01-2022, 00:29:56,    322,    0.0,    2.2,   0.00,   0.00, 1031.7,   79.3, -999.0
22-01-2022, 00:30:06,    323,    0.0,    2.2,   0.00,   0.00, 1031.7,   79.3, -999.0
22-01-2022, 00:30:15,    322,    0.0,    2.2,   0.00,   0.00, 1031.7,   79.3, -999.0
22-01-2022, 00:30:26,    322,    0.0,    2.2,   0.00,   0.00, 1031.7,   79.5, -999.0
22-01-2022, 00:30:35,    322,    0.0,    2.2,   0.00,   0.00, 1031.7,   79.4, -999.0
22-01-2022, 00:30:45,    322,    0.0,    2.2,   0.00,   0.00, 1031.7,   79.3, -999.0
22-01-2022, 00:30:56,    323,    0.0,    2.2,   0.00,   0.00, 1031.7,   79.4, -999.0
22-01-2022, 00:31:05,    322,    0.0,    2.2,   0.00,   0.00, 1031.7,   79.4, -999.0
22-01-2022, 00:31:15,    322,    0.0,    2.2,   0.00,   0.00, 1031.7,   79.3, -999.0
22-01-2022, 00:31:25,    322,    0.0,    2.3,   0.00,   0.00, 1031.7,   79.3, -999.0
22-01-2022, 00:31:35,    322,    0.0,    2.2,   0.00,   0.00, 1031.6,   79.4, -999.0
22-01-2022, 00:31:45,    322,    0.0,    2.2,   0.00,   0.00, 1031.7,   79.4, -999.0
22-01-2022, 00:31:55,    322,    0.0,    2.2,   0.00,   0.00, 1031.7,   79.3, -999.0
22-01-2022, 00:32:05,    321,    0.0,    2.2,   0.00,   0.00, 1031.6,   79.2, -999.0
22-01-2022, 00:32:15,    322,    0.0,    2.2,   0.00,   0.00, 1031.6,   79.2, -999.0
22-01-2022, 00:32:25,    322,    0.0,    2.2,   0.00,   0.00, 1031.6,   79.2, -999.0
22-01-2022, 00:32:35,    322,    0.0,    2.2,   0.00,   0.00, 1031.7,   79.4, -999.0
22-01-2022, 00:32:45,    322,    0.0,    2.3,   0.00,   0.00, 1031.6,   79.4, -999.0
22-01-2022, 00:32:55,    322,    0.0,    2.3,   0.00,   0.00, 1031.6,   79.3, -999.0
22-01-2022, 00:33:05,    322,    0.0,    2.1,   0.00,   0.00, 1031.6,   79.3, -999.0
22-01-2022, 00:33:15,    322,    0.0,    2.2,   0.00,   0.00, 1031.6,   79.3, -999.0
22-01-2022, 00:33:25,    322,    0.0,    2.2,   0.00,   0.00, 1031.6,   79.3, -999.0
22-01-2022, 00:33:35,    321,    0.0,    2.2,   0.00,   0.00, 1031.7,   79.3, -999.0
22-01-2022, 00:33:45,    322,    0.0,    2.3,   0.00,   0.00, 1031.6,   79.4, -999.0
22-01-2022, 00:33:54,    311,    0.0,    2.3,   0.00,   0.00, 1031.6,   79.4, -999.0
22-01-2022, 00:34:05,    307,    0.5,    2.3,   0.00,   0.00, 1031.7,   79.7, -999.0
22-01-2022, 00:34:15,    311,    0.3,    2.2,   0.00,   0.00, 1031.7,   79.7, -999.0
22-01-2022, 00:34:24,    311,    0.8,    2.4,   0.00,   0.00, 1031.7,   79.7, -999.0
22-01-2022, 00:34:34,    309,    1.1,    2.4,   0.00,   0.00, 1031.7,   79.5, -999.0
22-01-2022, 00:34:44,    295,    0.2,    2.3,   0.00,   0.00, 1031.6,   79.3, -999.0
22-01-2022, 00:34:54,    296,    0.2,    2.2,   0.00,   0.00, 1031.7,   79.2, -999.0
22-01-2022, 00:35:04,    296,    0.1,    2.3,   0.00,   0.00, 1031.6,   79.3, -999.0
22-01-2022, 00:35:14,    296,    0.0,    2.2,   0.00,   0.00, 1031.6,   79.1, -999.0
22-01-2022, 00:35:24,    353,    0.2,    2.3,   0.00,   0.00, 1031.6,   79.2, -999.0
22-01-2022, 00:35:34,    352,    0.6,    2.4,   0.00,   0.00, 1031.7,   79.5, -999.0
22-01-2022, 00:35:44,    344,    0.7,    2.3,   0.00,   0.00, 1031.6,   79.3, -999.0
22-01-2022, 00:35:54,    322,    0.9,    2.3,   0.00,   0.00, 1031.7,   79.4, -999.0
22-01-2022, 00:36:04,    320,    0.8,    2.3,   0.00,   0.00, 1031.7,   79.5, -999.0
22-01-2022, 00:36:14,    319,    0.5,    2.3,   0.00,   0.00, 1031.7,   79.4, -999.0
22-01-2022, 00:36:24,    318,    0.1,    2.2,   0.00,   0.00, 1031.6,   79.2, -999.0
22-01-2022, 00:36:34,    346,    0.2,    2.3,   0.00,   0.00, 1031.6,   79.3, -999.0
22-01-2022, 00:36:44,    342,    0.5,    2.3,   0.00,   0.00, 1031.7,   79.4, -999.0
22-01-2022, 00:36:54,    342,    0.0,    2.2,   0.00,   0.00, 1031.6,   79.0, -999.0
22-01-2022, 00:37:03,    342,    0.0,    2.2,   0.00,   0.00, 1031.6,   79.1, -999.0
22-01-2022, 00:37:14,    343,    0.2,    2.2,   0.00,   0.00, 1031.6,   79.2, -999.0
22-01-2022, 00:37:24,    343,    0.7,    2.3,   0.00,   0.00, 1031.7,   79.6, -999.0
22-01-2022, 00:37:33,    343,    0.3,    2.3,   0.00,   0.00, 1031.7,   79.5, -999.0
22-01-2022, 00:37:44,    342,    0.0,    2.2,   0.00,   0.00, 1031.6,   79.2, -999.0
22-01-2022, 00:37:53,    342,    0.0,    2.2,   0.00,   0.00, 1031.6,   79.1, -999.0
22-01-2022, 00:38:03,    342,    0.0,    2.2,   0.00,   0.00, 1031.6,   78.9, -999.0
22-01-2022, 00:38:13,    343,    0.0,    2.2,   0.00,   0.00, 1031.6,   79.2, -999.0
22-01-2022, 00:38:23,    342,    0.0,    2.3,   0.00,   0.00, 1031.6,   79.2, -999.0
22-01-2022, 00:38:33,    342,    0.0,    2.2,   0.00,   0.00, 1031.6,   79.2, -999.0
22-01-2022, 00:38:43,    343,    0.0,    2.1,   0.00,   0.00, 1031.6,   79.2, -999.0
22-01-2022, 00:38:53,    301,    0.6,    2.3,   0.00,   0.00, 1031.7,   79.5, -999.0
22-01-2022, 00:39:03,    301,    0.5,    2.3,   0.00,   0.00, 1031.7,   79.4, -999.0
22-01-2022, 00:39:13,    320,    2.2,    2.3,   0.00,   0.00, 1031.7,   79.6, -999.0
22-01-2022, 00:39:23,    337,    1.6,    2.3,   0.00,   0.00, 1031.7,   79.5, -999.0
22-01-2022, 00:39:33,    336,    0.8,    2.3,   0.00,   0.00, 1031.7,   79.6, -999.0
22-01-2022, 00:39:43,    335,    0.8,    2.3,   0.00,   0.00, 1031.7,   79.5, -999.0
22-01-2022, 00:39:53,    336,    0.6,    2.3,   0.00,   0.00, 1031.7,   79.5, -999.0
22-01-2022, 00:40:03,    335,    0.1,    2.3,   0.00,   0.00, 1031.6,   79.3, -999.0
22-01-2022, 00:40:13,    335,    0.0,    2.3,   0.00,   0.00, 1031.6,   79.3, -999.0
22-01-2022, 00:40:23,    335,    0.0,    2.3,   0.00,   0.00, 1031.6,   79.2, -999.0
22-01-2022, 00:40:33,    335,    0.0,    2.2,   0.00,   0.00, 1031.6,   79.3, -999.0
22-01-2022, 00:40:42,    335,    0.0,    2.3,   0.00,   0.00, 1031.6,   79.3, -999.0
22-01-2022, 00:40:53,    335,    0.3,    2.2,   0.00,   0.00, 1031.7,   79.5, -999.0
22-01-2022, 00:41:03,    335,    0.0,    2.3,   0.00,   0.00, 1031.6,   79.2, -999.0
22-01-2022, 00:41:12,    335,    0.0,    2.2,   0.00,   0.00, 1031.6,   79.2, -999.0
22-01-2022, 00:41:23,    335,    0.3,    2.3,   0.00,   0.00, 1031.6,   79.4, -999.0
22-01-2022, 00:41:32,    335,    0.6,    2.4,   0.00,   0.00, 1031.7,   79.5, -999.0
22-01-2022, 00:41:42,    334,    0.1,    2.4,   0.00,   0.00, 1031.6,   79.3, -999.0
22-01-2022, 00:41:52,    335,    0.4,    2.3,   0.00,   0.00, 1031.7,   79.4, -999.0
22-01-2022, 00:42:02,    335,    0.6,    2.4,   0.00,   0.00, 1031.7,   79.4, -999.0
22-01-2022, 00:42:12,    334,    1.4,    2.4,   0.00,   0.00, 1031.7,   79.4, -999.0
22-01-2022, 00:42:22,    334,    1.6,    2.4,   0.00,   0.00, 1031.7,   79.3, -999.0
22-01-2022, 00:42:32,    332,    0.2,    2.3,   0.00,   0.00, 1031.6,   79.2, -999.0
22-01-2022, 00:42:42,    296,    0.5,    2.3,   0.00,   0.00, 1031.6,   79.2, -999.0
22-01-2022, 00:42:52,    312,    0.5,    2.4,   0.00,   0.00, 1031.7,   79.3, -999.0
22-01-2022, 00:43:02,    311,    0.0,    2.3,   0.00,   0.00, 1031.5,   78.8, -999.0
22-01-2022, 00:43:12,    311,    0.0,    2.3,   0.00,   0.00, 1031.5,   79.0, -999.0
22-01-2022, 00:43:22,    315,    0.0,    2.2,   0.00,   0.00, 1031.5,   79.0, -999.0
22-01-2022, 00:43:32,    315,    0.0,    2.3,   0.00,   0.00, 1031.5,   79.0, -999.0
22-01-2022, 00:43:42,    322,    0.2,    2.3,   0.00,   0.00, 1031.6,   79.1, -999.0
22-01-2022, 00:43:52,    323,    0.0,    2.3,   0.00,   0.00, 1031.6,   79.2, -999.0
22-01-2022, 00:44:02,    327,    0.2,    2.3,   0.00,   0.00, 1031.6,   79.3, -999.0
22-01-2022, 00:44:12,    327,    0.4,    2.4,   0.00,   0.00, 1031.6,   79.4, -999.0
22-01-2022, 00:44:21,    303,    1.4,    2.2,   0.00,   0.00, 1031.7,   79.3, -999.0
22-01-2022, 00:44:32,    304,    1.2,    2.3,   0.00,   0.00, 1031.7,   79.2, -999.0
22-01-2022, 00:44:41,    310,    0.8,    2.3,   0.00,   0.00, 1031.7,   79.2, -999.0
22-01-2022, 00:44:51,    309,    0.3,    2.3,   0.00,   0.00, 1031.6,   79.2, -999.0
22-01-2022, 00:45:01,    335,    1.9,    2.4,   0.00,   0.00, 1031.7,   79.3, -999.0
22-01-2022, 00:45:11,    331,    2.6,    2.4,   0.00,   0.00, 1031.7,   79.2, -999.0
22-01-2022, 00:45:21,    327,    1.8,    2.3,   0.00,   0.00, 1031.7,   79.1, -999.0
22-01-2022, 00:45:31,    327,    1.7,    2.3,   0.00,   0.00, 1031.7,   79.1, -999.0
22-01-2022, 00:45:41,    329,    0.9,    2.3,   0.00,   0.00, 1031.7,   79.1, -999.0
22-01-2022, 00:45:51,    339,    1.0,    2.3,   0.00,   0.00, 1031.7,   79.0, -999.0
22-01-2022, 00:46:01,    338,    0.5,    2.3,   0.00,   0.00, 1031.7,   79.1, -999.0
22-01-2022, 00:46:11,    323,    1.1,    2.3,   0.00,   0.00, 1031.7,   79.1, -999.0
22-01-2022, 00:46:21,    283,    2.4,    2.3,   0.00,   0.00, 1031.7,   79.2, -999.0
22-01-2022, 00:46:31,    346,    0.5,    2.3,   0.00,   0.00, 1031.7,   79.2, -999.0
22-01-2022, 00:46:41,    298,    0.9,    2.3,   0.00,   0.00, 1031.7,   79.2, -999.0
22-01-2022, 00:46:51,    345,    2.2,    2.3,   0.00,   0.00, 1031.6,   79.2, -999.0
22-01-2022, 00:47:01,    332,    2.2,    2.3,   0.00,   0.00, 1031.7,   79.2, -999.0
22-01-2022, 00:47:11,    325,    0.8,    2.3,   0.00,   0.00, 1031.7,   79.3, -999.0
22-01-2022, 00:47:21,    326,    0.0,    2.3,   0.00,   0.00, 1031.6,   79.0, -999.0